Wind_Speed
22 24 24 26 27 21 22 28 14 16 19 27 16 16 9 11 14 10 11 12 17 24 30 35 38 38 38 35 34 33 31 28 26 23 19 15 12 9 6 4 4 6 10 12
20 22 22 21 25 21 20 23 19 19 22 20 17 13 7 15 16 10 12 14 19 25 33 38 38 38 37 36 34 31 29 26 23 20 17 14 11 7 5 4 5 8 11 13
11 11 20 6 8 7 7 13 15 14 17 8 11 7 11 21 15 14 14 18 22 28 35 36 36 36 36 35 32 29 26 24 21 18 15 12 8 6 3 4 7 9 12 15
7 9 4 5 4 8 3 12 15 13 13 8 8 15 22 24 16 16 17 19 24 31 34 34 34 35 34 31 30 28 25 22 19 15 12 9 7 3 3 6 8 11 14 17
4 6 10 2 3 5 2 3 15 18 14 10 9 11 4 5 7 16 17 20 25 31 32 32 32 32 31 31 29 26 23 19 16 12 10 7 4 2 5 7 10 13 17 20
3 4 4 4 7 6 4 8 2 10 9 3 3 3 3 5 8 14 18 22 26 28 29 30 32 30 30 30 27 23 20 17 14 11 7 4 2 4 6 9 12 16 18 21
6 4 7 4 9 1 5 3 4 4 7 5 1 1 3 8 14 16 18 22 25 28 30 30 30 30 29 27 24 20 17 14 12 8 5 3 3 5 8 11 15 17 19 21
2 2 6 3 4 4 3 8 6 5 6 9 1 9 9 12 16 17 22 24 25 29 30 30 29 29 28 25 22 18 15 12 9 6 3 2 4 7 10 14 17 20 21 21
6 5 5 8 6 8 10 10 5 3 7 12 13 11 15 17 17 21 24 26 27 29 31 30 29 26 26 23 19 16 12 10 7 4 1 2 6 10 13 17 19 20 22 25
2 4 5 6 4 8 7 6 7 6 10 13 16 18 21 20 22 23 25 27 28 31 32 31 27 24 19 20 16 12 10 8 5 2 1 5 9 12 15 17 19 21 24 26
5 7 10 8 4 3 6 9 13 13 13 18 22 22 23 24 25 26 28 29 29 31 31 30 26 22 18 16 13 11 8 6 4 1 4 7 11 14 16 18 20 22 24 25
4 3 2 1 4 5 7 10 13 17 20 20 22 27 26 27 27 28 29 30 31 31 30 29 24 21 18 15 10 7 6 4 1 3 7 10 13 14 15 17 19 21 22 22
1 1 2 7 9 8 12 16 17 20 22 26 26 28 29 31 29 30 31 30 30 29 27 25 21 19 16 12 9 7 4 2 2 6 10 13 16 17 20 19 20 21 21 22
10 6 4 11 7 13 18 21 23 24 26 27 30 30 32 33 32 31 30 28 26 25 24 21 19 17 14 10 7 4 2 3 6 10 13 14 16 18 21 23 26 25 21 22
12 10 4 11 18 20 22 25 27 28 28 29 28 30 30 32 31 29 28 26 24 23 21 18 15 14 12 8 5 3 4 7 9 11 13 15 17 19 20 22 23 25 26 24
13 8 15 21 24 27 29 30 31 31 29 29 29 28 28 28 29 28 25 22 21 22 20 16 14 13 9 5 3 4 7 9 11 12 14 17 19 19 21 22 23 25 26 27
20 16 21 25 26 28 29 31 32 32 31 30 30 29 29 29 29 28 25 21 19 19 17 12 11 9 6 3 4 6 8 10 12 14 16 18 19 20 21 22 23 24 25 24
9 10 18 25 32 33 31 31 31 31 30 29 28 28 28 27 28 27 24 22 19 17 14 11 8 5 3 3 5 8 9 11 14 16 17 18 19 20 21 22 23 24 24 24
5 7 16 25 30 31 32 32 31 29 29 29 28 27 25 24 24 23 21 18 15 13 12 8 5 3 3 5 7 9 11 13 15 17 18 18 18 20 21 22 22 23 24 25
9 13 18 27 29 30 33 30 29 29 27 25 26 26 26 24 22 21 19 17 13 9 9 6 3 3 4 6 8 10 13 15 17 17 18 19 20 20 20 20 21 23 24 24
14 18 23 28 31 31 31 30 30 30 29 25 24 25 25 24 20 18 16 14 13 10 6 3 2 3 5 7 10 12 15 16 17 18 18 19 19 19 20 19 21 23 23 22
18 22 27 31 33 33 31 30 28 28 27 27 25 25 25 24 21 18 13 7 11 7 4 2 2 4 6 9 12 14 15 16 17 18 19 19 20 20 19 20 22 23 22 21
21 26 31 33 34 34 32 30 28 27 27 25 24 23 21 20 17 14 13 12 8 5 2 1 3 5 9 12 14 15 16 17 17 18 19 19 20 20 20 21 22 23 22 19
23 28 33 33 33 33 34 31 28 25 24 24 22 20 18 19 18 13 10 10 7 4 1 2 5 8 12 13 15 16 17 17 18 19 19 20 20 19 18 20 22 22 20 17
25 30 32 34 35 34 32 31 29 28 27 25 23 20 17 14 8 13 11 8 5 3 0 3 7 10 13 14 15 16 17 18 19 19 20 20 19 19 18 20 22 22 19 17
27 32 35 35 35 35 34 32 31 30 28 28 25 21 18 13 13 11 9 7 4 2 2 5 8 11 13 14 15 16 18 19 19 19 20 20 19 19 18 20 21 19 16 15
30 33 35 35 34 33 30 31 30 30 27 24 23 21 16 15 13 10 8 5 3 1 4 7 10 12 13 15 16 18 19 20 20 21 21 20 20 19 18 19 19 17 14 15
Wind_Direction
257 266 274 265 262 246 222 229 233 252 232 263 269 270 274 294 315 240 201 186 184 178 174 171 169 170 170 169 169 169 168 169 170 170 172 179 185 191 204 238 286 316 324 325
276 268 263 274 273 265 234 229 238 250 262 267 270 278 302 314 323 218 192 183 183 176 170 167 167 167 166 166 165 167 169 170 172 172 174 180 188 198 222 270 312 322 324 324
279 331 307 274 290 276 225 192 215 233 247 260 294 307 304 291 278 222 185 185 180 173 170 166 166 167 165 164 165 167 170 171 172 174 178 183 193 210 247 308 318 321 326 326
286 312 299 292 324 325 250 185 208 249 269 285 282 279 283 287 279 200 183 180 175 171 167 166 164 164 162 164 165 167 170 171 172 175 181 187 197 221 294 309 320 326 325 325
286 311 279 242 344 317 336 244 204 224 247 257 290 291 302 337 204 191 191 177 171 171 169 164 164 163 164 164 166 169 169 169 170 176 183 188 202 265 300 316 325 324 325 326
314 289 296 286 317 335 161 33 240 206 232 231 315 353 347 47 150 165 171 167 166 168 168 166 165 166 167 166 167 166 165 167 169 174 179 186 242 289 312 321 323 325 327 329
245 274 286 279 306 305 53 303 318 241 206 216 187 68 95 111 137 151 155 158 164 165 167 168 166 167 167 164 164 164 165 167 166 164 177 215 280 314 320 322 323 326 327 326
197 270 290 21 1 46 258 309 297 282 247 233 166 95 103 122 130 144 150 156 164 164 164 164 166 167 165 162 162 162 161 160 161 170 198 268 309 318 321 325 326 325 327 327
181 225 265 313 261 309 313 288 300 260 210 200 179 138 134 127 136 147 151 153 157 159 158 159 163 170 163 159 160 159 157 158 167 184 217 299 315 323 325 326 328 330 330 329
345 283 268 311 326 336 4 30 57 119 147 161 147 140 127 132 139 143 143 146 152 152 151 151 158 163 162 152 152 154 158 161 166 174 268 315 323 326 329 331 332 332 332 330
260 280 277 283 278 358 66 87 96 105 120 133 137 132 135 136 138 138 138 141 147 148 146 145 151 150 145 145 150 152 154 156 162 225 313 322 326 332 334 337 337 333 331 329
227 266 233 62 140 126 115 108 109 119 121 125 134 134 138 135 134 134 136 140 142 141 142 139 143 140 138 140 142 150 152 154 181 314 325 331 334 335 336 333 332 331 329 327
221 269 266 137 139 140 131 124 123 123 125 130 131 133 134 130 131 132 133 137 137 137 137 138 139 139 139 141 144 147 150 146 344 340 338 337 335 333 331 331 333 334 332 331
232 190 133 166 159 150 142 137 133 129 131 131 132 132 130 128 129 130 131 133 134 134 133 137 139 137 136 140 143 138 96 13 351 343 339 336 335 336 334 333 334 337 338 332
202 207 241 179 155 149 147 143 136 134 134 133 134 132 132 130 131 131 132 133 134 134 134 137 139 136 135 132 121 69 14 353 344 340 338 338 337 335 334 334 335 335 335 336
185 182 156 162 157 155 154 152 146 141 141 138 137 136 135 134 132 132 134 137 141 138 137 139 136 129 123 109 60 8 350 344 342 342 340 337 335 336 337 338 337 336 339 339
152 151 166 166 164 159 160 155 151 147 145 145 143 142 142 139 136 135 136 139 140 133 132 131 126 119 108 68 8 348 346 347 345 341 338 338 340 340 339 337 336 337 339 341
187 211 191 181 167 163 161 158 154 152 150 148 146 146 145 144 142 142 143 146 143 136 133 131 122 108 80 13 352 351 350 345 341 341 341 341 341 339 336 336 337 338 340 342
195 180 177 176 169 165 161 159 157 154 152 150 149 147 146 145 142 141 141 144 142 142 137 132 124 97 33 2 353 350 346 343 342 341 340 340 338 338 337 338 339 341 341 343
172 163 165 166 167 167 160 158 155 151 149 149 149 147 146 143 144 143 145 144 140 141 135 132 108 37 7 358 351 345 342 342 342 340 340 341 339 338 339 339 341 342 342 343
165 162 164 165 164 164 163 159 157 154 151 156 156 151 148 145 149 149 152 150 146 145 141 124 68 22 360 348 343 344 343 341 340 341 340 338 336 337 339 342 344 343 343 343
168 167 166 166 164 160 161 160 161 155 156 155 155 153 152 148 150 148 147 157 149 145 141 112 45 358 346 346 346 343 341 340 340 339 337 336 336 338 341 343 344 343 343 342
170 169 167 166 165 161 158 158 160 157 156 156 156 155 154 150 153 160 156 152 150 144 132 51 2 347 349 347 342 340 340 339 337 337 338 338 337 338 340 340 342 342 341 340
171 170 169 167 164 160 156 156 157 155 155 152 151 153 158 155 154 157 153 153 145 140 134 356 348 351 346 341 340 340 337 335 336 339 339 338 337 336 335 336 339 341 341 340
174 168 166 164 163 160 158 156 156 155 154 152 153 153 154 153 161 153 153 147 146 155 134 356 350 344 339 338 338 336 335 337 339 339 340 338 335 334 335 337 339 339 343 344
171 169 167 168 166 163 162 161 162 159 161 158 155 157 159 158 154 152 148 153 156 125 12 348 341 338 336 335 336 338 339 338 338 338 337 337 335 334 333 335 336 338 341 344
174 173 169 166 166 165 168 166 166 163 166 164 160 158 160 155 154 153 157 152 130 43 347 340 337 335 334 336 339 341 339 338 337 337 337 335 333 331 332 333 334 337 346 348
Height
1421 1414 1409 1405 1397 1397 1397 1386 1396 1375 1389 1371 1379 1379 1377 1375 1373 1372 1373 1373 1375 1377 1381 1388 1396 1404 1412 1419 1428 1435 1442 1449 1455 1458 1462 1467 1470 1473 1474 1475 1476 1476 1475 1474
1410 1405 1397 1393 1383 1380 1381 1383 1386 1386 1381 1371 1372 1374 1373 1370 1369 1371 1373 1374 1376 1380 1384 1390 1398 1405 1413 1421 1429 1437 1443 1450 1455 1458 1462 1465 1469 1471 1472 1473 1474 1473 1472 1471
1399 1390 1386 1377 1372 1366 1366 1372 1374 1379 1366 1369 1367 1367 1369 1368 1367 1368 1371 1373 1377 1382 1387 1394 1401 1408 1415 1423 1431 1438 1444 1450 1454 1457 1461 1465 1468 1469 1470 1471 1471 1470 1469 1468
1404 1395 1378 1372 1369 1366 1362 1367 1372 1370 1367 1367 1366 1366 1365 1364 1361 1365 1369 1373 1378 1384 1391 1398 1405 1413 1419 1426 1433 1439 1445 1449 1453 1457 1461 1464 1466 1468 1469 1469 1468 1467 1466 1464
1403 1393 1378 1366 1367 1367 1365 1362 1364 1368 1366 1365 1366 1366 1363 1362 1362 1365 1368 1374 1381 1388 1396 1402 1410 1415 1421 1429 1435 1441 1445 1449 1453 1457 1460 1463 1465 1466 1466 1466 1465 1464 1462 1459
1405 1397 1389 1369 1365 1363 1364 1362 1362 1363 1366 1367 1366 1362 1365 1364 1365 1367 1372 1377 1383 1392 1400 1406 1412 1418 1425 1431 1437 1441 1445 1449 1453 1457 1460 1462 1464 1464 1464 1464 1463 1461 1458 1455
1403 1396 1386 1372 1365 1363 1366 1372 1362 1363 1367 1367 1368 1371 1368 1367 1369 1372 1376 1381 1388 1395 1402 1409 1414 1421 1428 1434 1438 1442 1445 1449 1453 1457 1460 1461 1462 1462 1462 1461 1459 1457 1455 1451
1398 1397 1394 1371 1367 1368 1371 1364 1363 1363 1362 1363 1364 1367 1368 1370 1371 1375 1378 1384 1391 1397 1405 1412 1418 1425 1430 1434 1439 1443 1447 1450 1454 1456 1458 1459 1461 1461 1459 1458 1455 1452 1449 1447
1392 1386 1371 1369 1369 1369 1367 1364 1362 1362 1362 1363 1366 1369 1372 1373 1377 1381 1384 1389 1395 1401 1407 1415 1422 1428 1431 1436 1441 1445 1448 1451 1454 1456 1458 1459 1459 1458 1457 1454 1451 1448 1444 1440
1386 1373 1370 1368 1369 1367 1365 1363 1360 1361 1362 1365 1367 1372 1374 1379 1384 1388 1390 1394 1400 1405 1411 1417 1425 1432 1436 1439 1443 1446 1449 1451 1454 1456 1457 1457 1457 1456 1453 1451 1447 1444 1440 1435
1383 1373 1369 1368 1369 1368 1368 1366 1364 1365 1367 1368 1371 1375 1379 1385 1389 1393 1395 1400 1406 1410 1415 1422 1430 1435 1439 1442 1445 1448 1451 1453 1454 1455 1456 1456 1454 1452 1450 1447 1444 1440 1436 1432
1376 1370 1371 1370 1370 1371 1371 1369 1369 1369 1372 1375 1378 1380 1385 1390 1394 1396 1401 1406 1411 1417 1422 1428 1434 1438 1441 1445 1448 1450 1451 1453 1454 1454 1454 1453 1451 1449 1447 1445 1441 1437 1433 1429
1370 1370 1370 1370 1372 1373 1374 1374 1375 1376 1379 1380 1385 1388 1391 1394 1399 1403 1408 1414 1418 1423 1428 1432 1437 1441 1444 1447 1450 1451 1452 1453 1453 1452 1451 1449 1447 1445 1443 1441 1437 1433 1429 1424
1369 1370 1371 1372 1373 1375 1376 1378 1380 1382 1385 1388 1390 1394 1397 1399 1405 1410 1415 1420 1424 1428 1433 1437 1441 1443 1447 1449 1451 1452 1452 1451 1451 1450 1449 1447 1445 1442 1438 1434 1430 1428 1425 1420
1367 1368 1369 1370 1373 1376 1379 1381 1383 1387 1391 1394 1397 1399 1403 1406 1411 1416 1421 1425 1429 1433 1437 1440 1443 1446 1448 1450 1451 1451 1450 1450 1449 1448 1447 1444 1442 1439 1435 1432 1427 1423 1418 1415
1366 1367 1368 1371 1374 1376 1380 1383 1385 1389 1394 1398 1401 1405 1409 1412 1416 1420 1425 1430 1432 1435 1439 1442 1445 1446 1449 1450 1450 1450 1450 1449 1448 1446 1444 1442 1439 1435 1432 1428 1424 1420 1415 1409
1362 1367 1368 1371 1374 1378 1382 1385 1388 1391 1396 1400 1404 1408 1412 1416 1420 1424 1429 1434 1437 1439 1442 1444 1445 1446 1448 1449 1450 1450 1449 1447 1446 1444 1441 1438 1435 1432 1429 1425 1420 1416 1412 1407
1362 1363 1365 1368 1371 1376 1383 1387 1391 1394 1398 1403 1408 1411 1415 1419 1422 1427 1431 1435 1438 1440 1442 1444 1446 1447 1448 1449 1449 1448 1447 1445 1444 1441 1438 1435 1432 1429 1425 1422 1417 1413 1408 1403
1361 1362 1364 1369 1374 1379 1384 1388 1393 1398 1402 1406 1410 1414 1419 1422 1426 1429 1433 1436 1439 1441 1443 1445 1446 1447 1447 1448 1447 1447 1445 1443 1441 1438 1435 1432 1429 1426 1422 1418 1414 1410 1405 1400
1361 1363 1366 1370 1376 1380 1384 1391 1395 1400 1405 1409 1413 1417 1420 1425 1428 1431 1435 1437 1440 1443 1444 1445 1446 1447 1447 1447 1446 1445 1443 1440 1438 1435 1433 1430 1426 1423 1419 1415 1412 1407 1403 1398
1360 1363 1367 1371 1377 1382 1387 1391 1396 1400 1405 1411 1414 1418 1422 1426 1430 1433 1436 1438 1440 1443 1445 1446 1446 1446 1446 1446 1445 1443 1441 1438 1436 1433 1430 1426 1423 1419 1416 1411 1407 1403 1399 1395
1360 1363 1368 1373 1378 1383 1389 1393 1398 1401 1407 1411 1416 1420 1423 1427 1431 1434 1438 1440 1441 1443 1445 1446 1446 1446 1446 1444 1443 1441 1438 1435 1433 1430 1427 1424 1420 1416 1412 1408 1404 1400 1396 1393
1361 1364 1369 1374 1379 1384 1390 1396 1400 1404 1408 1414 1417 1421 1425 1428 1432 1435 1437 1440 1442 1444 1445 1445 1445 1445 1444 1443 1441 1438 1436 1433 1430 1427 1424 1420 1416 1412 1409 1405 1401 1397 1393 1390
1363 1366 1370 1376 1382 1386 1390 1397 1402 1407 1411 1416 1420 1424 1426 1429 1432 1436 1438 1440 1442 1444 1445 1445 1445 1444 1443 1441 1439 1436 1434 1431 1428 1424 1421 1417 1413 1409 1406 1403 1399 1395 1391 1388
1365 1369 1373 1378 1382 1388 1393 1398 1403 1409 1413 1417 1421 1425 1429 1431 1435 1436 1439 1440 1442 1443 1444 1444 1443 1442 1440 1438 1436 1434 1431 1427 1424 1420 1416 1413 1410 1406 1403 1400 1396 1392 1388 1385
1367 1371 1375 1380 1384 1388 1393 1398 1403 1409 1413 1417 1421 1426 1429 1432 1434 1437 1438 1440 1442 1442 1443 1442 1441 1440 1438 1436 1434 1430 1427 1424 1420 1417 1414 1410 1406 1403 1400 1397 1394 1390 1386 1383
1368 1372 1377 1382 1387 1391 1396 1400 1404 1408 1414 1418 1421 1426 1430 1432 1435 1437 1439 1440 1441 1441 1441 1441 1440 1438 1436 1433 1431 1428 1424 1420 1417 1413 1410 1407 1404 1400 1397 1394 1391 1387 1384 1381